CAPE
0 0 0 0 0 0 0 2 540 1241 1571 1946 1604 1242 1033 966 872 810 895 929 773 817 660 531 531 156 32 13 3 2 1 2
0 0 0 0 0 0 0 0 0 664 921 1299 1565 1055 800 845 1029 913 759 571 511 410 337 372 139 2 2 0 2 2 2 9
0 0 0 0 0 0 0 0 0 20 578 866 1454 703 485 598 844 936 813 619 350 230 311 123 1 2 2 1 1 2 1 1
0 0 0 0 0 0 0 0 0 27 447 1001 804 636 364 360 446 767 743 520 343 303 302 36 2 1 1 2 2 0 1 1
0 0 0 0 0 0 0 0 0 29 476 796 505 495 322 408 560 613 654 514 371 207 82 5 2 2 3 2 3 0 0 0
0 0 0 0 0 0 0 0 0 22 263 720 543 388 556 705 656 560 351 410 153 157 29 4 2 2 1 1 1 1 1 1
0 0 0 0 0 0 0 5 74 54 271 508 633 349 803 746 834 699 262 263 195 28 17 6 4 2 2 2 2 2 1 2
0 0 0 0 0 0 0 0 32 122 223 226 570 371 850 927 908 776 351 150 58 12 4 4 2 4 2 2 2 2 2 6
0 0 0 0 0 0 0 0 0 88 107 18 251 269 659 902 637 375 107 28 35 3 1 2 2 2 3 2 3 3 3 7
7 4 0 0 0 0 0 0 0 1 94 6 68 191 434 627 631 464 63 0 2 16 4 4 4 2 2 3 2 2 3 3
0 5 1 0 0 0 0 0 0 0 46 2 22 50 299 518 372 175 9 0 1 4 1 2 1 2 2 2 3 4 4 7
18 5 2 0 0 0 0 0 0 19 7 2 13 0 164 304 233 70 0 2 1 8 15 3 2 2 2 1 1 1 2 2
1 4 4 1 0 0 0 0 1 10 1 6 5 0 64 181 81 1 1 0 4 4 10 1 2 1 2 1 1 1 1 0
0 0 0 0 0 0 0 0 0 4 6 3 3 0 35 40 3 4 2 1 1 4 0 4 3 2 2 2 1 1 1 1
1 0 0 0 0 0 0 0 1 7 6 4 6 3 5 0 0 6 0 1 0 0 0 4 2 1 1 1 1 1 2 1
1 0 1 0 0 0 2 1 0 2 5 7 2 0 0 2 1 2 0 0 2 0 0 1 3 2 2 1 1 1 1 1
0 1 1 1 1 4 5 2 1 2 0 1 1 2 1 5 2 0 1 2 4 2 0 0 2 0 0 0 1 1 0 0
2 2 2 3 5 5 5 1 1 0 1 2 2 1 2 3 1 0 2 1 2 6 1 4 1 4 0 0 0 2 0 1
5 4 4 4 5 4 3 0 4 2 1 1 4 3 1 0 0 2 2 1 2 1 0 1 4 7 0 0 0 2 2 1
CIN
-0 -0 -0 -0 -0 -0 -0 -9 -95 -105 -75 -35 -29 -100 -143 -156 -172 -181 -137 -96 -90 -29 -6 -9 -1 -7 -35 -34 -43 -0 -1 -0
-0 -0 -0 -0 -0 -0 -0 -0 -0 -117 -126 -82 -54 -191 -203 -209 -125 -141 -138 -145 -124 -83 -44 -17 -53 -0 -19 -0 -0 -0 -0 -17
-0 -0 -0 -0 -0 -0 -0 -0 -0 -212 -149 -131 -91 -236 -265 -238 -182 -133 -128 -157 -149 -113 -44 -79 -32 -0 -0 -0 -0 -0 -0 -0
-0 -0 -0 -0 -0 -0 -0 -0 -0 -269 -155 -94 -192 -220 -271 -281 -286 -195 -174 -162 -161 -94 -60 -37 -0 -0 -0 -0 -0 -0 -0 -10
-0 -0 -0 -0 -0 -0 -0 -0 -0 -244 -151 -111 -262 -273 -333 -321 -266 -226 -172 -171 -163 -131 -118 -3 -2 -0 -0 -0 -0 -0 -0 -0
-0 -0 -0 -0 -0 -0 -0 -13 -15 -224 -150 -109 -231 -268 -245 -190 -206 -217 -233 -195 -229 -149 -114 -6 -0 -0 -0 -0 -0 -0 -0 -0
-0 -0 -0 -0 -0 -0 -0 -28 -170 -227 -143 -136 -180 -269 -160 -147 -141 -168 -262 -230 -217 -211 -143 -2 -2 -6 -0 -0 -0 -0 -0 -0
-0 -0 -0 -0 -0 -0 -0 -0 -110 -170 -187 -245 -204 -261 -134 -95 -101 -137 -217 -268 -285 -269 -2 -0 -0 -0 -0 -0 -0 -0 -0 -0
-0 -0 -0 -0 -0 -0 -0 -0 -0 -181 -238 -458 -269 -271 -165 -87 -125 -187 -279 -332 -281 -0 -7 -0 -0 -0 -0 -0 -0 -0 -0 -0
-3 -1 -0 -0 -0 -0 -0 -0 -0 -1 -259 -490 -408 -290 -188 -136 -104 -138 -278 -1 -1 -0 -0 -0 -0 -0 -0 -0 -0 -0 -0 -0
-0 -2 -0 -0 -0 -0 -0 -0 -0 -0 -336 -3 -510 -424 -189 -110 -140 -240 -324 -0 -0 -2 -1 -1 -0 -0 -0 -0 -0 -0 -0 -0
-2 -2 -1 -0 -0 -0 -0 -0 -0 -331 -414 -3 -0 -0 -236 -137 -174 -311 -1 -1 -0 -0 -0 -0 -0 -0 -0 -0 -0 -0 -0 -0
-32 -2 -1 -1 -0 -0 -0 -0 -11 -25 -7 -2 -0 -0 -316 -153 -268 -1 -0 -0 -1 -0 -1 -0 -0 -0 -0 -0 -0 -0 -0 -0
-0 -0 -0 -0 -0 -0 -0 -0 -0 -2 -1 -0 -4 -0 -320 -246 -91 -0 -0 -2 -2 -0 -0 -3 -0 -0 -0 -0 -0 -0 -0 -0
-1 -0 -1 -0 -0 -0 -0 -0 -0 -0 -0 -0 -1 -0 -160 -2 -0 -0 -0 -0 -1 -1 -0 -0 -0 -0 -0 -0 -0 -0 -0 -0
-1 -1 -0 -0 -0 -0 -0 -0 -0 -0 -0 -0 -0 -0 -0 -1 -0 -2 -0 -1 -1 -0 -0 -0 -0 -1 -0 -0 -0 -0 -0 -0
-0 -0 -0 -0 -0 -0 -0 -0 -0 -0 -0 -0 -0 -0 -0 -0 -1 -0 -2 -0 -1 -1 -0 -1 -3 -1 -0 -0 -0 -0 -0 -0
-0 -0 -0 -0 -0 -0 -0 -0 -0 -0 -0 -0 -0 -0 -0 -1 -5 -1 -1 -1 -0 -0 -1 -0 -0 -7 -0 -0 -0 -0 -0 -0
-0 -0 -0 -0 -0 -0 -0 -0 -0 -0 -0 -0 -0 -0 -0 -0 -1 -1 -1 -0 -1 -1 -0 -2 -0 -35 -0 -0 -0 -0 -0 -0
Wind_Speed
16 16 16 17 16 18 19 18 15 15 17 16 14 13 12 12 10 7 6 5 5 7 8 8 8 8 9 8 9 13 12 19
22 20 18 18 22 23 22 21 19 16 17 17 16 16 15 14 11 8 6 5 6 8 9 9 7 8 7 6 10 7 12 17
25 22 22 23 25 26 25 24 23 19 19 18 18 16 16 15 12 9 8 7 7 8 9 10 8 8 7 7 8 10 18 9
24 19 22 24 25 27 28 27 25 21 20 18 18 16 16 16 14 13 10 8 7 9 9 10 8 8 7 6 8 8 4 8
18 19 21 23 25 26 28 29 26 23 19 17 17 18 17 17 16 13 10 8 8 9 9 9 8 8 7 6 8 8 9 15
16 18 22 24 25 27 28 29 27 23 19 19 18 19 17 16 14 13 12 9 9 9 9 9 9 8 7 7 10 10 12 13
17 20 23 25 26 28 30 30 29 24 19 18 18 18 17 15 14 12 12 10 8 10 9 8 8 8 8 10 11 12 13 12
20 23 26 29 31 30 32 32 31 26 20 19 18 19 19 17 13 12 10 11 10 9 8 7 9 8 8 10 11 12 12 13
22 25 28 31 33 35 37 37 36 29 23 21 18 19 21 18 14 11 11 12 10 9 7 7 6 6 6 9 11 10 10 11
24 27 29 33 36 39 40 40 42 35 24 21 19 20 20 17 14 13 11 10 10 7 6 5 4 5 6 7 9 10 11 14
28 28 31 35 38 41 41 42 45 37 24 20 20 20 19 17 15 12 10 10 9 7 4 4 3 4 5 7 9 10 12 13
28 29 32 35 38 41 41 42 43 28 21 20 20 20 19 18 14 12 10 9 8 6 3 4 5 6 7 8 11 12 13 15
29 33 37 38 40 42 41 40 35 23 19 18 19 20 21 19 15 12 9 8 7 5 4 4 3 6 7 9 12 12 15 18
33 36 38 39 41 43 41 38 35 23 20 18 19 20 22 19 15 12 9 8 8 6 6 7 4 2 4 6 9 10 13 15
33 35 37 39 41 42 41 37 34 21 18 18 19 19 19 18 16 12 10 9 8 5 5 6 5 2 4 5 6 4 6 12
35 37 39 40 41 42 40 35 30 18 15 16 18 21 20 18 16 13 11 11 9 6 4 6 4 4 3 3 4 5 7 6
35 37 38 39 42 43 40 34 29 26 15 18 20 24 24 21 17 15 12 13 10 7 5 6 6 7 5 2 3 2 5 8
36 37 37 39 41 40 37 31 30 28 15 19 19 21 21 18 17 16 15 14 12 11 8 6 6 7 4 3 4 3 1 2
35 35 36 37 38 37 35 25 22 16 13 16 19 20 20 18 18 18 18 16 12 11 10 10 9 10 4 2 5 2 2 3
Wind_Direction
274 276 276 275 281 283 282 282 272 268 275 273 270 267 261 263 265 262 255 260 281 291 293 300 296 294 295 285 276 278 257 264
277 280 283 283 287 287 285 284 280 271 272 269 264 264 265 261 254 261 261 272 282 292 296 299 295 291 286 274 282 242 270 263
275 278 284 285 285 286 285 285 283 274 272 270 271 270 264 261 258 258 264 275 292 292 291 297 288 292 288 270 269 273 282 235
274 278 285 288 286 288 289 287 284 278 273 274 273 272 267 258 250 257 252 269 278 293 294 297 287 279 277 248 248 226 211 208
274 279 285 291 294 295 295 291 286 280 271 265 258 261 260 257 258 256 261 253 271 288 290 288 282 281 272 226 220 226 217 175
274 282 287 294 298 299 298 296 291 284 272 263 260 259 262 263 256 251 258 259 274 285 287 286 283 277 249 223 239 234 222 206
285 289 293 295 301 303 301 297 292 288 274 264 257 255 255 255 254 253 264 273 277 282 284 284 277 274 251 233 237 235 231 233
288 291 294 297 297 300 301 297 293 288 279 268 256 249 251 254 247 251 262 278 288 283 280 275 277 271 256 241 234 230 230 241
291 296 299 299 297 297 295 292 289 287 280 273 256 249 253 254 248 250 265 282 292 290 275 280 268 256 250 242 241 237 211 198
296 300 303 302 299 296 293 290 283 284 279 272 257 247 248 241 244 254 269 288 299 284 276 258 232 231 233 235 237 227 205 186
297 302 305 306 304 299 296 291 281 280 274 265 255 243 237 243 246 242 265 290 298 300 281 251 217 220 209 218 234 239 222 198
299 306 308 309 309 306 300 296 287 280 267 259 251 235 232 242 238 246 266 285 291 299 297 257 217 215 222 236 240 244 232 232
305 305 305 308 311 312 307 303 295 282 265 257 245 234 235 236 237 245 262 277 286 302 313 305 224 201 218 230 248 251 242 249
308 306 307 309 313 314 309 302 296 283 266 254 243 233 235 232 238 247 251 270 279 300 309 314 313 193 182 209 234 232 239 237
313 313 313 313 314 314 309 298 295 282 263 252 240 227 231 227 238 243 247 258 267 292 315 321 326 7 135 156 170 204 222 255
314 313 313 314 316 316 310 303 298 284 259 242 235 228 231 233 238 243 245 253 260 278 303 320 344 358 18 104 137 156 162 188
317 318 318 317 317 318 313 307 300 284 252 239 232 234 232 233 239 242 243 247 252 263 281 302 310 313 329 1 5 67 138 158
322 322 322 321 322 321 316 307 286 265 249 237 233 231 229 235 237 239 243 246 251 258 269 285 307 314 354 82 99 11 57 134
329 328 327 328 326 322 310 302 287 270 249 239 236 229 228 233 236 239 244 248 251 258 267 276 287 299 324 55 116 34 61 122